Time,TemperatureF,DewpointF,PressureIn,WindDirection,WindDirectionDegrees,WindSpeedMPH,WindSpeedGustMPH,Humidity,HourlyPrecipIn,Conditions,Clouds,dailyrainin,SoftwareType,DateUTC
2013-05-05 00:01:00,53.6,38.7,30.16,SE,142,0.0,0.0,57,0.00,,,0.00,WeatherDisplay:10.37,2013-05-05 04:01:00,
2013-05-05 00:06:00,53.2,39.2,30.17,SE,142,0.0,0.0,59,0.00,,,0.00,WeatherDisplay:10.37,2013-05-05 04:06:00,
2013-05-05 00:11:00,52.6,39.1,30.16,SE,143,0.0,0.0,60,0.00,,,0.00,WeatherDisplay:10.37,2013-05-05 04:11:00,
2013-05-05 00:16:00,52.0,39.4,30.16,SE,142,0.0,0.0,62,0.00,,,0.00,WeatherDisplay:10.37,2013-05-05 04:16:00,
2013-05-05 00:21:00,51.2,39.0,30.16,SE,143,0.0,0.0,63,0.00,,,0.00,WeatherDisplay:10.37,2013-05-05 04:21:00,
2013-05-05 00:26:00,50.6,38.9,30.16,SE,142,0.0,0.0,64,0.00,,,0.00,WeatherDisplay:10.37,2013-05-05 04:26:00,
2013-05-05 00:31:00,50.3,39.4,30.16,SE,142,0.0,0.0,66,0.00,,,0.00,WeatherDisplay:10.37,2013-05-05 04:31:00,
2013-05-05 00:36:00,50.4,39.9,30.16,SSE,160,0.0,1.2,67,0.00,,,0.00,WeatherDisplay:10.37,2013-05-05 04:36:00,
2013-05-05 00:41:00,50.3,39.8,30.16,SSE,160,0.0,1.2,67,0.00,,,0.00,WeatherDisplay:10.37,2013-05-05 04:41:00,
2013-05-05 00:46:00,50.2,40.0,30.16,SSE,160,0.0,1.2,68,0.00,,,0.00,WeatherDisplay:10.37,2013-05-05 04:46:00,
2013-05-05 00:51:00,50.1,39.9,30.16,SSE,159,0.0,1.2,68,0.00,,,0.00,WeatherDisplay:10.37,2013-05-05 04:51:00,
2013-05-05 00:56:00,49.9,40.1,30.16,SSE,159,0.0,1.2,69,0.00,,,0.00,WeatherDisplay:10.37,2013-05-05 04:56:00,
2013-05-05 01:01:00,49.8,40.0,30.16,SSE,159,0.0,1.2,69,0.00,,,0.00,WeatherDisplay:10.37,2013-05-05 05:01:00,
2013-05-05 01:06:00,49.9,40.5,30.16,SSE,160,0.0,1.2,70,0.00,,,0.00,WeatherDisplay:10.37,2013-05-05 05:06:00,
2013-05-05 01:11:00,49.7,40.3,30.16,SSE,160,0.0,1.2,70,0.00,,,0.00,WeatherDisplay:10.37,2013-05-05 05:11:00,
2013-05-05 01:16:00,49.5,40.5,30.16,SSE,160,0.0,1.2,71,0.00,,,0.00,WeatherDisplay:10.37,2013-05-05 05:16:00,
2013-05-05 01:21:00,49.3,40.3,30.16,SSE,160,0.0,1.2,71,0.00,,,0.00,WeatherDisplay:10.37,2013-05-05 05:21:00,
2013-05-05 01:26:00,49.3,40.3,30.16,SSE,161,0.0,1.2,71,0.00,,,0.00,WeatherDisplay:10.37,2013-05-05 05:26:00,
2013-05-05 01:31:00,49.2,40.6,30.15,SSE,160,0.0,1.2,72,0.00,,,0.00,WeatherDisplay:10.37,2013-05-05 05:31:00,
2013-05-05 01:36:00,49.2,40.9,30.15,SSE,160,0.0,1.2,73,0.00,,,0.00,WeatherDisplay:10.37,2013-05-05 05:36:00,
2013-05-05 01:41:00,49.1,40.8,30.15,SSE,160,0.0,1.2,73,0.00,,,0.00,WeatherDisplay:10.37,2013-05-05 05:41:00,
2013-05-05 01:46:00,48.9,40.6,30.15,SSE,160,0.0,1.2,73,0.00,,,0.00,WeatherDisplay:10.37,2013-05-05 05:46:00,
2013-05-05 01:51:00,48.7,41.1,30.15,SSE,160,0.0,1.2,75,0.00,,,0.00,WeatherDisplay:10.37,2013-05-05 05:51:00,
2013-05-05 01:56:00,48.5,41.6,30.15,SSE,161,0.0,1.2,77,0.00,,,0.00,WeatherDisplay:10.37,2013-05-05 05:56:00,
2013-05-05 02:01:00,48.4,41.9,30.15,SSE,160,0.0,1.2,78,0.00,,,0.00,WeatherDisplay:10.37,2013-05-05 06:01:00,
2013-05-05 02:06:00,48.3,41.4,30.15,SSE,160,0.0,1.2,77,0.00,,,0.00,WeatherDisplay:10.37,2013-05-05 06:06:00,
2013-05-05 02:11:00,48.2,41.3,30.15,SSE,160,0.0,1.2,77,0.00,,,0.00,WeatherDisplay:10.37,2013-05-05 06:11:00,
2013-05-05 02:16:00,48.1,41.2,30.15,SSE,161,0.0,1.2,77,0.00,,,0.00,WeatherDisplay:10.37,2013-05-05 06:16:00,
2013-05-05 02:21:00,48.0,41.1,30.15,SSE,160,0.0,1.2,77,0.00,,,0.00,WeatherDisplay:10.37,2013-05-05 06:21:00,
2013-05-05 02:26:00,47.7,40.8,30.15,SSE,160,0.0,1.2,77,0.00,,,0.00,WeatherDisplay:10.37,2013-05-05 06:26:00,
2013-05-05 02:31:00,47.6,41.4,30.14,SSE,161,0.0,1.2,79,0.00,,,0.00,WeatherDisplay:10.37,2013-05-05 06:31:00,
2013-05-05 02:36:00,47.7,41.8,30.14,SSE,160,0.0,1.2,80,0.00,,,0.00,WeatherDisplay:10.37,2013-05-05 06:36:00,
2013-05-05 02:41:00,47.8,41.9,30.14,SSE,161,0.0,1.2,80,0.00,,,0.00,WeatherDisplay:10.37,2013-05-05 06:41:00,
2013-05-05 02:46:00,47.9,41.7,30.14,SSE,160,0.0,1.2,79,0.00,,,0.00,WeatherDisplay:10.37,2013-05-05 06:46:00,
2013-05-05 02:51:00,47.7,41.5,30.14,SSE,160,0.0,1.2,79,0.00,,,0.00,WeatherDisplay:10.37,2013-05-05 06:51:00,
2013-05-05 02:56:00,47.6,41.7,30.14,SSE,160,0.0,1.2,80,0.00,,,0.00,WeatherDisplay:10.37,2013-05-05 06:56:00,
2013-05-05 03:01:00,47.5,41.6,30.14,SSE,161,0.0,1.2,80,0.00,,,0.00,WeatherDisplay:10.37,2013-05-05 07:01:00,
2013-05-05 03:06:00,47.4,41.9,30.14,SSE,161,0.0,1.2,81,0.00,,,0.00,WeatherDisplay:10.37,2013-05-05 07:06:00,
2013-05-05 03:11:00,47.3,41.8,30.14,SSE,160,0.0,1.2,81,0.00,,,0.00,WeatherDisplay:10.37,2013-05-05 07:11:00,
2013-05-05 03:16:00,47.1,41.2,30.14,SSE,161,0.0,1.2,80,0.00,,,0.00,WeatherDisplay:10.37,2013-05-05 07:16:00,
2013-05-05 03:21:00,46.8,41.6,30.15,SSE,161,0.0,1.2,82,0.00,,,0.00,WeatherDisplay:10.37,2013-05-05 07:21:00,
2013-05-05 03:26:00,46.7,41.2,30.14,SSE,160,0.0,1.2,81,0.00,,,0.00,WeatherDisplay:10.37,2013-05-05 07:26:00,
2013-05-05 03:31:00,46.6,41.4,30.15,SSE,160,0.0,1.2,82,0.00,,,0.00,WeatherDisplay:10.37,2013-05-05 07:31:00,
2013-05-05 03:36:00,46.6,41.4,30.15,SSE,160,0.0,1.2,82,0.00,,,0.00,WeatherDisplay:10.37,2013-05-05 07:36:00,
2013-05-05 03:41:00,46.5,41.3,30.15,SSE,161,0.0,1.2,82,0.00,,,0.00,WeatherDisplay:10.37,2013-05-05 07:41:00,
2013-05-05 03:46:00,46.3,41.4,30.15,SSE,160,0.0,1.2,83,0.00,,,0.00,WeatherDisplay:10.37,2013-05-05 07:46:00,
2013-05-05 03:51:00,46.4,40.9,30.15,SSE,160,0.0,1.2,81,0.00,,,0.00,WeatherDisplay:10.37,2013-05-05 07:51:00,
2013-05-05 03:56:00,47.0,41.1,30.15,SE,128,0.0,1.2,80,0.00,,,0.00,WeatherDisplay:10.37,2013-05-05 07:56:00,
2013-05-05 04:01:00,47.5,41.3,30.15,SE,128,0.0,1.2,79,0.00,,,0.00,WeatherDisplay:10.37,2013-05-05 08:01:00,
2013-05-05 04:06:00,47.6,41.4,30.15,SE,129,0.0,1.2,79,0.00,,,0.00,WeatherDisplay:10.37,2013-05-05 08:06:00,
2013-05-05 04:11:00,47.9,41.7,30.15,SE,130,0.1,1.2,79,0.00,,,0.00,WeatherDisplay:10.37,2013-05-05 08:11:00,
2013-05-05 04:16:00,48.0,41.8,30.14,SE,129,0.0,1.2,79,0.00,,,0.00,WeatherDisplay:10.37,2013-05-05 08:16:00,
2013-05-05 04:21:00,48.0,41.5,30.14,SE,130,0.0,1.2,78,0.00,,,0.00,WeatherDisplay:10.37,2013-05-05 08:21:00,
2013-05-05 04:26:00,47.9,41.7,30.14,SE,130,0.0,1.2,79,0.00,,,0.00,WeatherDisplay:10.37,2013-05-05 08:26:00,
2013-05-05 04:31:00,47.7,41.5,30.14,SE,130,0.0,1.2,79,0.00,,,0.00,WeatherDisplay:10.37,2013-05-05 08:31:00,
2013-05-05 04:36:00,47.5,41.3,30.15,SE,130,0.0,1.2,79,0.00,,,0.00,WeatherDisplay:10.37,2013-05-05 08:36:00,
2013-05-05 04:41:00,47.6,41.7,30.15,SE,128,0.0,1.2,80,0.00,,,0.00,WeatherDisplay:10.37,2013-05-05 08:41:00,
2013-05-05 04:46:00,47.7,41.8,30.15,SE,141,0.0,1.2,80,0.00,,,0.00,WeatherDisplay:10.37,2013-05-05 08:46:00,
2013-05-05 04:51:00,47.7,41.5,30.15,SE,141,0.0,1.2,79,0.00,,,0.00,WeatherDisplay:10.37,2013-05-05 08:51:00,
2013-05-05 04:56:00,47.6,41.7,30.15,SE,139,0.0,1.2,80,0.00,,,0.00,WeatherDisplay:10.37,2013-05-05 08:56:00,
2013-05-05 05:01:00,47.4,41.5,30.15,SE,139,0.0,1.2,80,0.00,,,0.00,WeatherDisplay:10.37,2013-05-05 09:01:00,
2013-05-05 05:06:00,46.9,41.1,30.15,SE,139,0.0,1.2,80,0.00,,,0.00,WeatherDisplay:10.37,2013-05-05 09:06:00,
2013-05-05 05:11:00,46.7,41.2,30.15,SE,138,0.0,1.2,81,0.00,,,0.00,WeatherDisplay:10.37,2013-05-05 09:11:00,
2013-05-05 05:16:00,46.8,41.3,30.15,SE,138,0.0,1.2,81,0.00,,,0.00,WeatherDisplay:10.37,2013-05-05 09:16:00,
2013-05-05 05:21:00,46.9,41.4,30.15,SE,137,0.0,1.2,81,0.00,,,0.00,WeatherDisplay:10.37,2013-05-05 09:21:00,
2013-05-05 05:26:00,47.1,41.6,30.15,SE,137,0.1,1.2,81,0.00,,,0.00,WeatherDisplay:10.37,2013-05-05 09:26:00,
2013-05-05 05:31:00,47.2,41.3,30.15,SE,137,0.0,1.2,80,0.00,,,0.00,WeatherDisplay:10.37,2013-05-05 09:31:00,
2013-05-05 05:36:00,47.2,41.7,30.15,SE,137,0.0,1.2,81,0.00,,,0.00,WeatherDisplay:10.37,2013-05-05 09:36:00,
2013-05-05 05:41:00,47.1,41.9,30.16,SE,137,0.0,1.2,82,0.00,,,0.00,WeatherDisplay:10.37,2013-05-05 09:41:00,
2013-05-05 05:46:00,46.9,41.7,30.16,SE,137,0.0,1.2,82,0.00,,,0.00,WeatherDisplay:10.37,2013-05-05 09:46:00,
2013-05-05 05:51:00,46.8,41.9,30.16,SE,137,0.0,1.2,83,0.00,,,0.00,WeatherDisplay:10.37,2013-05-05 09:51:00,
2013-05-05 05:56:00,47.0,41.8,30.16,ESE,102,0.3,1.2,82,0.00,,,0.00,WeatherDisplay:10.37,2013-05-05 09:56:00,
2013-05-05 06:01:00,47.2,42.0,30.16,SE,133,0.0,1.2,82,0.00,,,0.00,WeatherDisplay:10.37,2013-05-05 10:01:00,
2013-05-05 06:06:00,47.2,42.0,30.17,SE,133,0.0,1.2,82,0.00,,,0.00,WeatherDisplay:10.37,2013-05-05 10:06:00,
2013-05-05 06:11:00,47.5,42.3,30.17,SE,130,0.1,1.2,82,0.00,,,0.00,WeatherDisplay:10.37,2013-05-05 10:11:00,
2013-05-05 06:16:00,47.3,42.1,30.17,ESE,122,0.1,1.2,82,0.00,,,0.00,WeatherDisplay:10.37,2013-05-05 10:16:00,
2013-05-05 06:21:00,47.5,42.3,30.17,ESE,121,0.2,1.2,82,0.00,,,0.00,WeatherDisplay:10.37,2013-05-05 10:21:00,
2013-05-05 06:26:00,48.3,42.4,30.17,SE,131,0.1,2.3,80,0.00,,,0.00,WeatherDisplay:10.37,2013-05-05 10:26:00,
2013-05-05 06:31:00,49.6,42.7,30.17,SE,124,0.8,2.3,77,0.00,,,0.00,WeatherDisplay:10.37,2013-05-05 10:31:00,
2013-05-05 06:36:00,50.6,43.0,30.17,SE,140,0.3,2.3,75,0.00,,,0.00,WeatherDisplay:10.37,2013-05-05 10:36:00,
2013-05-05 06:41:00,51.6,43.6,30.17,SSE,153,0.0,2.3,74,0.00,,,0.00,WeatherDisplay:10.37,2013-05-05 10:41:00,
2013-05-05 06:46:00,52.6,44.2,30.18,SSE,154,0.0,2.3,73,0.00,,,0.00,WeatherDisplay:10.37,2013-05-05 10:46:00,
2013-05-05 06:51:00,53.5,44.0,30.18,SSE,153,0.0,2.3,70,0.00,,,0.00,WeatherDisplay:10.37,2013-05-05 10:51:00,
2013-05-05 06:56:00,54.3,44.0,30.18,SE,131,0.0,2.3,68,0.00,,,0.00,WeatherDisplay:10.37,2013-05-05 10:56:00,
2013-05-05 07:01:00,55.0,44.2,30.18,SW,221,0.0,2.3,67,0.00,,,0.00,WeatherDisplay:10.37,2013-05-05 11:01:00,
2013-05-05 07:06:00,55.1,43.9,30.17,SW,236,0.3,2.3,66,0.00,,,0.00,WeatherDisplay:10.37,2013-05-05 11:06:00,
2013-05-05 07:11:00,55.5,43.9,30.18,SW,235,0.1,3.5,65,0.00,,,0.00,WeatherDisplay:10.37,2013-05-05 11:11:00,
2013-05-05 07:16:00,55.9,44.3,30.18,WSW,242,0.0,3.5,65,0.00,,,0.00,WeatherDisplay:10.37,2013-05-05 11:16:00,
2013-05-05 07:21:00,56.6,43.3,30.18,SW,225,1.6,3.5,61,0.00,,,0.00,WeatherDisplay:10.37,2013-05-05 11:21:00,
2013-05-05 07:26:00,57.0,43.7,30.18,SW,232,2.1,4.0,61,0.00,,,0.00,WeatherDisplay:10.37,2013-05-05 11:26:00,
2013-05-05 07:31:00,57.4,44.1,30.18,SW,215,0.6,4.0,61,0.00,,,0.00,WeatherDisplay:10.37,2013-05-05 11:31:00,
2013-05-05 07:36:00,58.1,43.8,30.18,West,270,3.6,6.0,59,0.00,,,0.00,WeatherDisplay:10.37,2013-05-05 11:36:00,
2013-05-05 07:41:00,58.2,43.9,30.18,South,183,0.9,6.0,59,0.00,,,0.00,WeatherDisplay:10.37,2013-05-05 11:41:00,
2013-05-05 07:46:00,58.8,44.0,30.18,SSE,163,1.4,6.0,58,0.00,,,0.00,WeatherDisplay:10.37,2013-05-05 11:46:00,
2013-05-05 07:51:00,59.1,43.9,30.18,SW,225,1.6,6.0,57,0.00,,,0.00,WeatherDisplay:10.37,2013-05-05 11:51:00,
2013-05-05 07:56:00,59.4,44.2,30.18,WSW,252,1.0,6.0,57,0.00,,,0.00,WeatherDisplay:10.37,2013-05-05 11:56:00,
2013-05-05 08:01:00,59.9,45.1,30.18,SSW,204,1.6,6.0,58,0.00,,,0.00,WeatherDisplay:10.37,2013-05-05 12:01:00,
2013-05-05 08:06:00,60.4,44.6,30.18,SW,222,2.4,6.0,56,0.00,,,0.00,WeatherDisplay:10.37,2013-05-05 12:06:00,
2013-05-05 08:11:00,61.1,45.3,30.19,WSW,239,1.7,6.0,56,0.00,,,0.00,WeatherDisplay:10.37,2013-05-05 12:11:00,
2013-05-05 08:16:00,61.9,45.1,30.19,SW,215,0.7,6.0,54,0.00,,,0.00,WeatherDisplay:10.37,2013-05-05 12:16:00,
2013-05-05 08:21:00,62.3,44.4,30.19,WSW,258,2.8,6.0,52,0.00,,,0.00,WeatherDisplay:10.37,2013-05-05 12:21:00,
2013-05-05 08:26:00,62.6,44.7,30.19,West,260,1.7,6.0,52,0.00,,,0.00,WeatherDisplay:10.37,2013-05-05 12:26:00,
2013-05-05 08:31:00,63.2,45.3,30.19,SW,222,0.7,6.0,52,0.00,,,0.00,WeatherDisplay:10.37,2013-05-05 12:31:00,
2013-05-05 08:36:00,63.9,44.9,30.19,SW,221,1.9,6.0,50,0.00,,,0.00,WeatherDisplay:10.37,2013-05-05 12:36:00,
2013-05-05 08:41:00,64.6,45.0,30.19,SW,225,1.3,6.0,49,0.00,,,0.00,WeatherDisplay:10.37,2013-05-05 12:41:00,
2013-05-05 08:46:00,65.0,44.8,30.19,SSE,164,1.0,6.0,48,0.00,,,0.00,WeatherDisplay:10.37,2013-05-05 12:46:00,
2013-05-05 08:51:00,65.4,45.2,30.19,South,169,0.9,6.0,48,0.00,,,0.00,WeatherDisplay:10.37,2013-05-05 12:51:00,
2013-05-05 08:56:00,65.8,46.1,30.19,SSW,200,1.5,6.0,49,0.00,,,0.00,WeatherDisplay:10.37,2013-05-05 12:56:00,
2013-05-05 09:01:00,66.1,44.7,30.19,West,269,0.0,6.0,46,0.00,,,0.00,WeatherDisplay:10.37,2013-05-05 13:01:00,
2013-05-05 09:06:00,66.4,45.5,30.19,SW,221,1.5,6.0,47,0.00,,,0.00,WeatherDisplay:10.37,2013-05-05 13:06:00,
2013-05-05 09:11:00,66.8,45.3,30.19,SSE,158,1.5,6.0,46,0.00,,,0.00,WeatherDisplay:10.37,2013-05-05 13:11:00,
2013-05-05 09:16:00,67.6,46.1,30.19,WSW,257,0.1,6.0,46,0.00,,,0.00,WeatherDisplay:10.37,2013-05-05 13:16:00,
2013-05-05 09:21:00,68.2,46.0,30.19,WSW,250,1.4,6.0,45,0.00,,,0.00,WeatherDisplay:10.37,2013-05-05 13:21:00,
2013-05-05 09:26:00,68.2,45.4,30.19,West,262,2.1,6.0,44,0.00,,,0.00,WeatherDisplay:10.37,2013-05-05 13:26:00,
2013-05-05 09:31:00,68.8,46.6,30.19,SW,219,1.0,6.0,45,0.00,,,0.00,WeatherDisplay:10.37,2013-05-05 13:31:00,
2013-05-05 09:36:00,69.3,47.0,30.19,South,182,1.2,6.0,45,0.00,,,0.00,WeatherDisplay:10.37,2013-05-05 13:36:00,
2013-05-05 09:41:00,69.0,43.0,30.19,WSW,246,0.6,6.0,39,0.00,,,0.00,WeatherDisplay:10.37,2013-05-05 13:41:00,
2013-05-05 09:46:00,68.8,43.5,30.18,WNW,284,2.2,6.0,40,0.00,,,0.00,WeatherDisplay:10.37,2013-05-05 13:46:00,
2013-05-05 09:51:00,69.0,45.6,30.18,SW,224,0.4,6.0,43,0.00,,,0.00,WeatherDisplay:10.37,2013-05-05 13:51:00,
2013-05-05 09:56:00,69.1,43.8,30.19,WNW,283,2.8,6.0,40,0.00,,,0.00,WeatherDisplay:10.37,2013-05-05 13:56:00,
2013-05-05 10:01:00,69.0,43.7,30.18,SW,219,0.7,6.0,40,0.00,,,0.00,WeatherDisplay:10.37,2013-05-05 14:01:00,
2013-05-05 10:06:00,69.3,45.2,30.18,NW,308,0.7,6.0,42,0.00,,,0.00,WeatherDisplay:10.37,2013-05-05 14:06:00,
2013-05-05 10:11:00,69.7,45.6,30.18,WSW,247,0.7,6.0,42,0.00,,,0.00,WeatherDisplay:10.37,2013-05-05 14:11:00,
2013-05-05 10:16:00,69.4,44.0,30.18,SW,229,2.8,6.0,40,0.00,,,0.00,WeatherDisplay:10.37,2013-05-05 14:16:00,
2013-05-05 10:21:00,69.6,43.5,30.18,SSW,194,1.3,6.0,39,0.00,,,0.00,WeatherDisplay:10.37,2013-05-05 14:21:00,
2013-05-05 10:26:00,70.2,44.7,30.18,SE,124,0.0,6.0,40,0.00,,,0.00,WeatherDisplay:10.37,2013-05-05 14:26:00,
2013-05-05 10:31:00,70.6,45.1,30.18,SW,232,0.5,6.0,40,0.00,,,0.00,WeatherDisplay:10.37,2013-05-05 14:31:00,
2013-05-05 10:36:00,70.7,46.5,30.18,West,273,1.4,6.0,42,0.00,,,0.00,WeatherDisplay:10.37,2013-05-05 14:36:00,
2013-05-05 10:41:00,70.8,43.9,30.18,South,179,0.9,6.0,38,0.00,,,0.00,WeatherDisplay:10.37,2013-05-05 14:41:00,
2013-05-05 10:46:00,71.3,47.0,30.18,WSW,239,1.2,6.0,42,0.00,,,0.00,WeatherDisplay:10.37,2013-05-05 14:46:00,
2013-05-05 10:51:00,71.4,47.7,30.18,NW,312,1.2,6.0,43,0.00,,,0.00,WeatherDisplay:10.37,2013-05-05 14:51:00,
2013-05-05 10:56:00,71.4,44.5,30.18,WNW,295,0.1,6.0,38,0.00,,,0.00,WeatherDisplay:10.37,2013-05-05 14:56:00,
2013-05-05 11:01:00,71.3,45.1,30.18,West,263,1.4,6.0,39,0.00,,,0.00,WeatherDisplay:10.37,2013-05-05 15:01:00,
2013-05-05 11:06:00,72.0,47.0,30.18,ENE,68,0.9,6.0,41,0.00,,,0.00,WeatherDisplay:10.37,2013-05-05 15:06:00,
2013-05-05 11:11:00,72.7,47.6,30.18,NW,322,0.7,6.0,41,0.00,,,0.00,WeatherDisplay:10.37,2013-05-05 15:11:00,
2013-05-05 11:16:00,72.3,49.8,30.18,NW,316,2.6,6.0,45,0.00,,,0.00,WeatherDisplay:10.37,2013-05-05 15:16:00,
2013-05-05 11:21:00,72.0,47.0,30.17,West,273,1.8,6.0,41,0.00,,,0.00,WeatherDisplay:10.37,2013-05-05 15:21:00,
2013-05-05 11:26:00,72.3,49.8,30.17,North,356,1.3,6.0,45,0.00,,,0.00,WeatherDisplay:10.37,2013-05-05 15:26:00,
2013-05-05 11:31:00,72.6,48.2,30.17,NNW,337,0.7,6.0,42,0.00,,,0.00,WeatherDisplay:10.37,2013-05-05 15:31:00,
2013-05-05 11:36:00,72.5,48.7,30.17,NW,319,1.7,6.0,43,0.00,,,0.00,WeatherDisplay:10.37,2013-05-05 15:36:00,
2013-05-05 11:41:00,72.4,49.3,30.17,NE,53,1.2,6.0,44,0.00,,,0.00,WeatherDisplay:10.37,2013-05-05 15:41:00,
2013-05-05 11:46:00,72.1,46.4,30.17,NW,316,1.4,7.0,40,0.00,,,0.00,WeatherDisplay:10.37,2013-05-05 15:46:00,
2013-05-05 11:51:00,72.0,47.0,30.17,WNW,284,2.1,7.0,41,0.00,,,0.00,WeatherDisplay:10.37,2013-05-05 15:51:00,
2013-05-05 11:56:00,72.1,45.1,30.17,NW,316,1.3,7.0,38,0.00,,,0.00,WeatherDisplay:10.37,2013-05-05 15:56:00,
2013-05-05 12:01:00,72.5,49.3,30.17,North,356,1.6,7.0,44,0.00,,,0.00,WeatherDisplay:10.37,2013-05-05 16:01:00,
2013-05-05 12:06:00,72.4,46.7,30.17,WNW,284,3.3,7.0,40,0.00,,,0.00,WeatherDisplay:10.37,2013-05-05 16:06:00,
2013-05-05 12:11:00,72.7,47.0,30.17,West,269,1.0,7.0,40,0.00,,,0.00,WeatherDisplay:10.37,2013-05-05 16:11:00,
2013-05-05 12:16:00,72.3,48.5,30.17,ENE,58,2.7,7.0,43,0.00,,,0.00,WeatherDisplay:10.37,2013-05-05 16:16:00,
2013-05-05 12:21:00,72.5,49.9,30.17,NW,318,1.4,7.0,45,0.00,,,0.00,WeatherDisplay:10.37,2013-05-05 16:21:00,
2013-05-05 12:26:00,72.6,47.5,30.16,NW,319,0.1,7.0,41,0.00,,,0.00,WeatherDisplay:10.37,2013-05-05 16:26:00,
2013-05-05 12:31:00,72.8,50.2,30.16,WNW,284,2.0,7.0,45,0.00,,,0.00,WeatherDisplay:10.37,2013-05-05 16:31:00,
2013-05-05 12:36:00,72.3,47.3,30.16,West,276,2.4,7.0,41,0.00,,,0.00,WeatherDisplay:10.37,2013-05-05 16:36:00,
2013-05-05 12:41:00,72.5,48.7,30.16,NNE,29,2.6,7.0,43,0.00,,,0.00,WeatherDisplay:10.37,2013-05-05 16:41:00,
2013-05-05 12:46:00,72.6,49.4,30.16,NNW,327,1.0,7.0,44,0.00,,,0.00,WeatherDisplay:10.37,2013-05-05 16:46:00,
2013-05-05 12:51:00,72.4,46.0,30.16,NNW,336,1.2,7.0,39,0.00,,,0.00,WeatherDisplay:10.37,2013-05-05 16:51:00,
2013-05-05 12:56:00,72.5,46.8,30.16,North,356,1.8,7.0,40,0.00,,,0.00,WeatherDisplay:10.37,2013-05-05 16:56:00,
2013-05-05 13:01:00,72.7,47.6,30.15,WNW,294,0.9,7.0,41,0.00,,,0.00,WeatherDisplay:10.37,2013-05-05 17:01:00,
2013-05-05 13:06:00,72.7,48.9,30.15,NNW,330,2.8,7.0,43,0.00,,,0.00,WeatherDisplay:10.37,2013-05-05 17:06:00,
2013-05-05 13:11:00,72.6,47.5,30.15,West,280,0.8,7.0,41,0.00,,,0.00,WeatherDisplay:10.37,2013-05-05 17:11:00,
2013-05-05 13:16:00,72.5,47.5,30.15,NW,321,2.5,7.0,41,0.00,,,0.00,WeatherDisplay:10.37,2013-05-05 17:16:00,
2013-05-05 13:21:00,72.9,49.7,30.15,NNW,331,1.2,7.0,44,0.00,,,0.00,WeatherDisplay:10.37,2013-05-05 17:21:00,
2013-05-05 13:26:00,72.9,48.5,30.14,WSW,253,2.8,7.0,42,0.00,,,0.00,WeatherDisplay:10.37,2013-05-05 17:26:00,
2013-05-05 13:31:00,72.9,46.5,30.14,NNW,345,1.1,7.0,39,0.00,,,0.00,WeatherDisplay:10.37,2013-05-05 17:31:00,
2013-05-05 13:36:00,72.8,47.1,30.14,NE,47,3.1,7.0,40,0.00,,,0.00,WeatherDisplay:10.37,2013-05-05 17:36:00,
2013-05-05 13:41:00,72.2,45.9,30.14,NW,325,3.1,7.0,39,0.00,,,0.00,WeatherDisplay:10.37,2013-05-05 17:41:00,
2013-05-05 13:46:00,72.1,45.8,30.14,NNE,12,3.0,7.0,39,0.00,,,0.00,WeatherDisplay:10.37,2013-05-05 17:46:00,
2013-05-05 13:51:00,71.8,48.1,30.14,West,278,1.2,7.0,43,0.00,,,0.00,WeatherDisplay:10.37,2013-05-05 17:51:00,
2013-05-05 13:56:00,72.1,48.4,30.14,NE,56,0.6,7.0,43,0.00,,,0.00,WeatherDisplay:10.37,2013-05-05 17:56:00,
2013-05-05 14:01:00,72.5,47.5,30.14,NW,315,1.4,7.0,41,0.00,,,0.00,WeatherDisplay:10.37,2013-05-05 18:01:00,
2013-05-05 14:06:00,72.3,46.6,30.14,North,8,1.0,7.0,40,0.00,,,0.00,WeatherDisplay:10.37,2013-05-05 18:06:00,
2013-05-05 14:11:00,72.6,47.5,30.14,North,6,2.1,7.0,41,0.00,,,0.00,WeatherDisplay:10.37,2013-05-05 18:11:00,
2013-05-05 14:16:00,72.6,46.9,30.13,WNW,287,0.9,7.0,40,0.00,,,0.00,WeatherDisplay:10.37,2013-05-05 18:16:00,
2013-05-05 14:21:00,72.4,47.4,30.13,North,358,2.2,7.0,41,0.00,,,0.00,WeatherDisplay:10.37,2013-05-05 18:21:00,
2013-05-05 14:26:00,72.4,46.0,30.13,SW,231,1.3,7.0,39,0.00,,,0.00,WeatherDisplay:10.37,2013-05-05 18:26:00,
2013-05-05 14:31:00,72.4,47.4,30.13,North,8,2.5,7.0,41,0.00,,,0.00,WeatherDisplay:10.37,2013-05-05 18:31:00,
2013-05-05 14:36:00,72.3,48.5,30.13,NNE,15,2.7,7.0,43,0.00,,,0.00,WeatherDisplay:10.37,2013-05-05 18:36:00,
2013-05-05 14:41:00,72.6,51.2,30.13,NE,41,0.9,7.0,47,0.00,,,0.00,WeatherDisplay:10.37,2013-05-05 18:41:00,
2013-05-05 14:46:00,72.3,47.3,30.12,ENE,68,1.3,7.0,41,0.00,,,0.00,WeatherDisplay:10.37,2013-05-05 18:46:00,
2013-05-05 14:51:00,72.6,47.5,30.12,NNW,343,0.8,7.0,41,0.00,,,0.00,WeatherDisplay:10.37,2013-05-05 18:51:00,
2013-05-05 14:56:00,72.9,45.1,30.12,NW,308,1.9,7.0,37,0.00,,,0.00,WeatherDisplay:10.37,2013-05-05 18:56:00,
2013-05-05 15:01:00,72.8,47.7,30.12,NNW,327,3.4,7.0,41,0.00,,,0.00,WeatherDisplay:10.37,2013-05-05 19:01:00,
2013-05-05 15:06:00,73.1,48.6,30.12,NNW,328,2.4,7.0,42,0.00,,,0.00,WeatherDisplay:10.37,2013-05-05 19:06:00,
2013-05-05 15:11:00,73.3,47.5,30.12,NNE,15,1.9,7.0,40,0.00,,,0.00,WeatherDisplay:10.37,2013-05-05 19:11:00,
2013-05-05 15:16:00,73.2,46.1,30.12,East,79,2.0,7.0,38,0.00,,,0.00,WeatherDisplay:10.37,2013-05-05 19:16:00,
2013-05-05 15:21:00,73.0,47.9,30.11,NW,324,1.7,7.0,41,0.00,,,0.00,WeatherDisplay:10.37,2013-05-05 19:21:00,
2013-05-05 15:26:00,72.7,45.6,30.11,NNE,23,1.5,7.0,38,0.00,,,0.00,WeatherDisplay:10.37,2013-05-05 19:26:00,
2013-05-05 15:31:00,72.6,46.9,30.11,WSW,239,1.9,7.0,40,0.00,,,0.00,WeatherDisplay:10.37,2013-05-05 19:31:00,
2013-05-05 15:36:00,72.8,47.7,30.11,West,281,2.1,7.0,41,0.00,,,0.00,WeatherDisplay:10.37,2013-05-05 19:36:00,
2013-05-05 15:41:00,72.7,45.6,30.11,ENE,61,2.6,7.0,38,0.00,,,0.00,WeatherDisplay:10.37,2013-05-05 19:41:00,
2013-05-05 15:46:00,72.7,47.0,30.11,ENE,63,1.7,7.0,40,0.00,,,0.00,WeatherDisplay:10.37,2013-05-05 19:46:00,
2013-05-05 15:51:00,72.8,47.1,30.10,NE,49,1.2,7.0,40,0.00,,,0.00,WeatherDisplay:10.37,2013-05-05 19:51:00,
2013-05-05 15:56:00,73.0,45.2,30.10,WNW,294,2.7,7.0,37,0.00,,,0.00,WeatherDisplay:10.37,2013-05-05 19:56:00,
2013-05-05 16:01:00,73.1,46.0,30.10,NW,318,2.2,7.0,38,0.00,,,0.00,WeatherDisplay:10.37,2013-05-05 20:01:00,
2013-05-05 16:06:00,73.1,46.7,30.10,NE,53,2.5,7.0,39,0.00,,,0.00,WeatherDisplay:10.37,2013-05-05 20:06:00,
2013-05-05 16:11:00,72.8,45.7,30.10,NE,53,4.0,7.0,38,0.00,,,0.00,WeatherDisplay:10.37,2013-05-05 20:11:00,
2013-05-05 16:16:00,72.6,46.9,30.10,ENE,71,1.6,7.0,40,0.00,,,0.00,WeatherDisplay:10.37,2013-05-05 20:16:00,
2013-05-05 16:21:00,72.8,46.4,30.09,WSW,257,1.1,7.0,39,0.00,,,0.00,WeatherDisplay:10.37,2013-05-05 20:21:00,
2013-05-05 16:26:00,73.2,46.1,30.09,ENE,61,1.2,7.0,38,0.00,,,0.00,WeatherDisplay:10.37,2013-05-05 20:26:00,
2013-05-05 16:31:00,73.3,46.2,30.09,NE,37,2.0,7.0,38,0.00,,,0.00,WeatherDisplay:10.37,2013-05-05 20:31:00,
2013-05-05 16:36:00,73.0,45.2,30.09,NE,47,1.0,7.0,37,0.00,,,0.00,WeatherDisplay:10.37,2013-05-05 20:36:00,
2013-05-05 16:41:00,72.9,47.2,30.09,ENE,65,2.1,7.0,40,0.00,,,0.00,WeatherDisplay:10.37,2013-05-05 20:41:00,
2013-05-05 16:46:00,73.1,48.0,30.09,NNW,330,2.0,7.0,41,0.00,,,0.00,WeatherDisplay:10.37,2013-05-05 20:46:00,
2013-05-05 16:51:00,73.1,45.3,30.09,ENE,58,2.9,7.0,37,0.00,,,0.00,WeatherDisplay:10.37,2013-05-05 20:51:00,
2013-05-05 16:56:00,72.9,47.2,30.09,ENE,74,1.2,7.0,40,0.00,,,0.00,WeatherDisplay:10.37,2013-05-05 20:56:00,
2013-05-05 17:01:00,72.5,46.1,30.09,ENE,78,2.1,7.0,39,0.00,,,0.00,WeatherDisplay:10.37,2013-05-05 21:01:00,
2013-05-05 17:06:00,72.3,45.9,30.09,NNE,29,3.5,7.0,39,0.00,,,0.00,WeatherDisplay:10.37,2013-05-05 21:06:00,
2013-05-05 17:11:00,72.1,47.7,30.09,ENE,78,3.6,7.0,42,0.00,,,0.00,WeatherDisplay:10.37,2013-05-05 21:11:00,
2013-05-05 17:16:00,71.9,44.9,30.09,NE,44,4.3,8.1,38,0.00,,,0.00,WeatherDisplay:10.37,2013-05-05 21:16:00,
2013-05-05 17:21:00,72.0,47.0,30.09,NE,56,3.2,8.1,41,0.00,,,0.00,WeatherDisplay:10.37,2013-05-05 21:21:00,
2013-05-05 17:26:00,71.7,45.4,30.08,ESE,102,1.9,8.1,39,0.00,,,0.00,WeatherDisplay:10.37,2013-05-05 21:26:00,
2013-05-05 17:31:00,71.7,45.4,30.09,ENE,67,1.6,8.1,39,0.00,,,0.00,WeatherDisplay:10.37,2013-05-05 21:31:00,
2013-05-05 17:36:00,71.5,45.9,30.09,North,358,1.5,8.1,40,0.00,,,0.00,WeatherDisplay:10.37,2013-05-05 21:36:00,
2013-05-05 17:41:00,71.6,45.3,30.08,NW,322,3.8,8.1,39,0.00,,,0.00,WeatherDisplay:10.37,2013-05-05 21:41:00,
2013-05-05 17:46:00,71.1,46.8,30.08,East,81,0.7,8.1,42,0.00,,,0.00,WeatherDisplay:10.37,2013-05-05 21:46:00,
2013-05-05 17:51:00,71.3,45.7,30.08,East,84,2.5,8.1,40,0.00,,,0.00,WeatherDisplay:10.37,2013-05-05 21:51:00,
2013-05-05 17:56:00,71.2,46.3,30.08,ENE,78,1.7,8.1,41,0.00,,,0.00,WeatherDisplay:10.37,2013-05-05 21:56:00,
2013-05-05 18:01:00,71.1,46.2,30.08,ENE,78,5.0,9.0,41,0.00,,,0.00,WeatherDisplay:10.37,2013-05-05 22:01:00,
2013-05-05 18:06:00,70.3,44.8,30.08,ENE,65,3.7,9.2,40,0.00,,,0.00,WeatherDisplay:10.37,2013-05-05 22:06:00,
2013-05-05 18:11:00,69.9,45.8,30.08,SE,139,3.7,9.2,42,0.00,,,0.00,WeatherDisplay:10.37,2013-05-05 22:11:00,
2013-05-05 18:16:00,69.6,45.5,30.08,East,79,2.2,9.2,42,0.00,,,0.00,WeatherDisplay:10.37,2013-05-05 22:16:00,
2013-05-05 18:21:00,69.4,45.3,30.08,ENE,64,3.7,9.2,42,0.00,,,0.00,WeatherDisplay:10.37,2013-05-05 22:21:00,
2013-05-05 18:26:00,69.4,45.3,30.08,ENE,63,3.0,9.2,42,0.00,,,0.00,WeatherDisplay:10.37,2013-05-05 22:26:00,
2013-05-05 18:31:00,69.4,45.3,30.08,East,83,2.6,9.2,42,0.00,,,0.00,WeatherDisplay:10.37,2013-05-05 22:31:00,
2013-05-05 18:36:00,69.2,45.1,30.08,NE,34,2.2,9.2,42,0.00,,,0.00,WeatherDisplay:10.37,2013-05-05 22:36:00,
2013-05-05 18:41:00,69.0,45.6,30.08,ENE,78,1.2,9.2,43,0.00,,,0.00,WeatherDisplay:10.37,2013-05-05 22:41:00,
2013-05-05 18:46:00,68.9,46.1,30.08,ENE,57,2.1,9.2,44,0.00,,,0.00,WeatherDisplay:10.37,2013-05-05 22:46:00,
2013-05-05 18:51:00,68.6,45.2,30.08,NE,56,1.4,9.2,43,0.00,,,0.00,WeatherDisplay:10.37,2013-05-05 22:51:00,
2013-05-05 18:56:00,68.5,44.5,30.08,ENE,62,1.8,9.2,42,0.00,,,0.00,WeatherDisplay:10.37,2013-05-05 22:56:00,
2013-05-05 19:01:00,68.3,44.9,30.08,NNW,337,0.7,9.2,43,0.00,,,0.00,WeatherDisplay:10.37,2013-05-05 23:01:00,
2013-05-05 19:06:00,68.1,44.7,30.08,ENE,77,2.4,9.2,43,0.00,,,0.00,WeatherDisplay:10.37,2013-05-05 23:06:00,
2013-05-05 19:11:00,67.8,43.9,30.08,ENE,60,1.7,9.2,42,0.00,,,0.00,WeatherDisplay:10.37,2013-05-05 23:11:00,
2013-05-05 19:16:00,67.5,44.2,30.08,ENE,68,2.5,9.2,43,0.00,,,0.00,WeatherDisplay:10.37,2013-05-05 23:16:00,
2013-05-05 19:21:00,67.2,44.5,30.08,ENE,75,0.9,9.2,44,0.00,,,0.00,WeatherDisplay:10.37,2013-05-05 23:21:00,
2013-05-05 19:26:00,66.8,45.3,30.08,ENE,65,0.7,9.2,46,0.00,,,0.00,WeatherDisplay:10.37,2013-05-05 23:26:00,
2013-05-05 19:31:00,66.3,44.9,30.08,ENE,67,0.1,9.2,46,0.00,,,0.00,WeatherDisplay:10.37,2013-05-05 23:31:00,
2013-05-05 19:36:00,65.9,45.1,30.08,ENE,71,0.1,9.2,47,0.00,,,0.00,WeatherDisplay:10.37,2013-05-05 23:36:00,
2013-05-05 19:41:00,65.6,44.8,30.08,ENE,58,1.1,9.2,47,0.00,,,0.00,WeatherDisplay:10.37,2013-05-05 23:41:00,
2013-05-05 19:46:00,65.4,44.6,30.08,ENE,73,0.3,9.2,47,0.00,,,0.00,WeatherDisplay:10.37,2013-05-05 23:46:00,
2013-05-05 19:51:00,64.8,44.6,30.08,ENE,74,0.0,9.2,48,0.00,,,0.00,WeatherDisplay:10.37,2013-05-05 23:51:00,
2013-05-05 19:56:00,64.6,43.9,30.09,ENE,60,0.6,9.2,47,0.00,,,0.00,WeatherDisplay:10.37,2013-05-05 23:56:00,
2013-05-05 20:01:00,64.5,44.4,30.08,East,86,0.4,9.2,48,0.00,,,0.00,WeatherDisplay:10.37,2013-05-06 00:01:00,
2013-05-05 20:06:00,64.1,43.4,30.08,East,91,0.6,9.2,47,0.00,,,0.00,WeatherDisplay:10.37,2013-05-06 00:06:00,
2013-05-05 20:11:00,63.7,43.6,30.08,East,88,0.0,9.2,48,0.00,,,0.00,WeatherDisplay:10.37,2013-05-06 00:11:00,
2013-05-05 20:16:00,63.3,42.7,30.09,ENE,71,0.8,9.2,47,0.00,,,0.00,WeatherDisplay:10.37,2013-05-06 00:16:00,
2013-05-05 20:21:00,62.9,43.4,30.08,East,94,0.0,9.2,49,0.00,,,0.00,WeatherDisplay:10.37,2013-05-06 00:21:00,
2013-05-05 20:26:00,62.4,43.0,30.09,East,94,0.0,9.2,49,0.00,,,0.00,WeatherDisplay:10.37,2013-05-06 00:26:00,
2013-05-05 20:31:00,61.9,43.0,30.09,East,93,0.0,9.2,50,0.00,,,0.00,WeatherDisplay:10.37,2013-05-06 00:31:00,
2013-05-05 20:36:00,61.5,43.2,30.09,East,94,0.0,9.2,51,0.00,,,0.00,WeatherDisplay:10.37,2013-05-06 00:36:00,
2013-05-05 20:41:00,61.0,42.7,30.09,East,92,0.0,9.2,51,0.00,,,0.00,WeatherDisplay:10.37,2013-05-06 00:41:00,
2013-05-05 20:46:00,60.4,43.2,30.09,East,92,0.0,9.2,53,0.00,,,0.00,WeatherDisplay:10.37,2013-05-06 00:46:00,
2013-05-05 20:51:00,60.0,43.3,30.09,East,93,0.0,9.2,54,0.00,,,0.00,WeatherDisplay:10.37,2013-05-06 00:51:00,
2013-05-05 20:56:00,59.6,43.4,30.09,East,93,0.0,9.2,55,0.00,,,0.00,WeatherDisplay:10.37,2013-05-06 00:56:00,
2013-05-05 21:01:00,59.3,43.6,30.09,East,93,0.1,9.2,56,0.00,,,0.00,WeatherDisplay:10.37,2013-05-06 01:01:00,
2013-05-05 21:06:00,59.1,43.9,30.09,East,94,0.0,9.2,57,0.00,,,0.00,WeatherDisplay:10.37,2013-05-06 01:06:00,
2013-05-05 21:11:00,58.6,43.9,30.09,East,93,0.0,9.2,58,0.00,,,0.00,WeatherDisplay:10.37,2013-05-06 01:11:00,
2013-05-05 21:16:00,58.1,43.4,30.09,East,92,0.0,9.2,58,0.00,,,0.00,WeatherDisplay:10.37,2013-05-06 01:16:00,
2013-05-05 21:21:00,57.8,43.6,30.09,East,94,0.0,9.2,59,0.00,,,0.00,WeatherDisplay:10.37,2013-05-06 01:21:00,
2013-05-05 21:26:00,57.6,44.2,30.10,East,94,0.0,9.2,61,0.00,,,0.00,WeatherDisplay:10.37,2013-05-06 01:26:00,
2013-05-05 21:31:00,57.3,44.0,30.10,East,94,0.0,9.2,61,0.00,,,0.00,WeatherDisplay:10.37,2013-05-06 01:31:00,
2013-05-05 21:36:00,56.7,43.8,30.10,East,94,0.0,9.2,62,0.00,,,0.00,WeatherDisplay:10.37,2013-05-06 01:36:00,
2013-05-05 21:41:00,56.8,43.5,30.10,East,94,0.0,9.2,61,0.00,,,0.00,WeatherDisplay:10.37,2013-05-06 01:41:00,
2013-05-05 21:46:00,56.8,43.9,30.10,East,94,0.0,9.2,62,0.00,,,0.00,WeatherDisplay:10.37,2013-05-06 01:46:00,
2013-05-05 21:51:00,56.5,43.6,30.10,East,94,0.0,9.2,62,0.00,,,0.00,WeatherDisplay:10.37,2013-05-06 01:51:00,
2013-05-05 21:56:00,56.2,43.8,30.10,East,94,0.0,9.2,63,0.00,,,0.00,WeatherDisplay:10.37,2013-05-06 01:56:00,
2013-05-05 22:01:00,56.1,42.8,30.10,East,94,0.0,9.2,61,0.00,,,0.00,WeatherDisplay:10.37,2013-05-06 02:01:00,
2013-05-05 22:06:00,56.0,43.2,30.10,East,94,0.0,9.2,62,0.00,,,0.00,WeatherDisplay:10.37,2013-05-06 02:06:00,
2013-05-05 22:11:00,55.7,42.9,30.10,East,92,0.0,9.2,62,0.00,,,0.00,WeatherDisplay:10.37,2013-05-06 02:11:00,
2013-05-05 22:16:00,55.7,42.9,30.10,East,93,0.0,9.2,62,0.00,,,0.00,WeatherDisplay:10.37,2013-05-06 02:16:00,
2013-05-05 22:21:00,55.4,42.2,30.10,East,94,0.0,9.2,61,0.00,,,0.00,WeatherDisplay:10.37,2013-05-06 02:21:00,
2013-05-05 22:26:00,55.6,41.9,30.10,ESE,113,0.4,9.2,60,0.00,,,0.00,WeatherDisplay:10.37,2013-05-06 02:26:00,
2013-05-05 22:31:00,56.3,42.6,30.10,ESE,113,0.0,9.2,60,0.00,,,0.00,WeatherDisplay:10.37,2013-05-06 02:31:00,
2013-05-05 22:36:00,56.7,42.5,30.09,ESE,113,0.0,9.2,59,0.00,,,0.00,WeatherDisplay:10.37,2013-05-06 02:36:00,
2013-05-05 22:41:00,56.6,42.0,30.10,ESE,113,0.0,9.2,58,0.00,,,0.00,WeatherDisplay:10.37,2013-05-06 02:41:00,
2013-05-05 22:46:00,56.5,41.9,30.10,SE,133,0.0,9.2,58,0.00,,,0.00,WeatherDisplay:10.37,2013-05-06 02:46:00,
2013-05-05 22:51:00,56.3,41.7,30.10,SE,137,0.0,9.2,58,0.00,,,0.00,WeatherDisplay:10.37,2013-05-06 02:51:00,
2013-05-05 22:56:00,56.1,41.5,30.10,SE,134,0.0,9.2,58,0.00,,,0.00,WeatherDisplay:10.37,2013-05-06 02:56:00,
2013-05-05 23:01:00,55.9,41.8,30.10,SE,133,0.0,9.2,59,0.00,,,0.00,WeatherDisplay:10.37,2013-05-06 03:01:00,
2013-05-05 23:06:00,55.8,41.7,30.10,SE,132,0.0,9.2,59,0.00,,,0.00,WeatherDisplay:10.37,2013-05-06 03:06:00,
2013-05-05 23:11:00,55.6,43.6,30.10,SE,132,0.0,9.2,64,0.00,,,0.00,WeatherDisplay:10.37,2013-05-06 03:11:00,
2013-05-05 23:16:00,55.1,43.9,30.10,SE,132,0.0,9.2,66,0.00,,,0.00,WeatherDisplay:10.37,2013-05-06 03:16:00,
2013-05-05 23:21:00,54.5,41.7,30.10,SE,132,0.0,9.2,62,0.00,,,0.00,WeatherDisplay:10.37,2013-05-06 03:21:00,
2013-05-05 23:26:00,54.1,41.8,30.10,SE,133,0.0,9.2,63,0.00,,,0.00,WeatherDisplay:10.37,2013-05-06 03:26:00,
2013-05-05 23:31:00,54.0,41.7,30.10,SE,133,0.0,9.2,63,0.00,,,0.00,WeatherDisplay:10.37,2013-05-06 03:31:00,
2013-05-05 23:36:00,53.8,41.9,30.10,SE,133,0.0,9.2,64,0.00,,,0.00,WeatherDisplay:10.37,2013-05-06 03:36:00,
2013-05-05 23:41:00,53.3,41.8,30.10,SE,132,0.0,9.2,65,0.00,,,0.00,WeatherDisplay:10.37,2013-05-06 03:41:00,
2013-05-05 23:46:00,52.8,42.1,30.10,SE,133,0.0,9.2,67,0.00,,,0.00,WeatherDisplay:10.37,2013-05-06 03:46:00,
2013-05-05 23:51:00,52.6,41.9,30.10,SE,133,0.0,0.0,67,0.00,CLR,,0.00,WeatherDisplay:10.37,2013-05-06 03:51:00,
2013-05-05 23:56:00,52.6,41.9,30.10,SE,133,0.0,1.2,67,0.00,,,0.00,WeatherDisplay:10.37,2013-05-06 03:56:00,